UAL1894 KDEN-KOKC

Flight info

Callsign UAL1894
Flight time 1h 12m
Altitude 39000
Route EPKEE7 DUUZE ROLLS CAMET3
Aircraft B738/M-SDE2E3FGHIRWXY/LB1

Departure

Time 2026-04-20 02:33
Airport Denver International Airport (KDEN)

Arrival

Time 2026-04-20 03:45
Airport OKC Will Rogers World Airport (KOKC)
Time Latitude Longitude Altitude Speed Heading
2026-04-20 02:06 39.85935 -104.67785 5381 ft 0 kts 180°
2026-04-20 02:22 39.85952 -104.67785 5375 ft 4 kts 180°
2026-04-20 02:22 39.85980 -104.67785 5378 ft 4 kts 180°
2026-04-20 02:22 39.86007 -104.67784 5376 ft 4 kts 180°
2026-04-20 02:22 39.86020 -104.67784 5376 ft 3 kts 180°
2026-04-20 02:26 39.86019 -104.67784 5379 ft 1 kts 178°
2026-04-20 02:26 39.86009 -104.67770 5378 ft 5 kts 119°
2026-04-20 02:26 39.86005 -104.67686 5377 ft 14 kts 90°
2026-04-20 02:26 39.86004 -104.67526 5377 ft 19 kts 91°
2026-04-20 02:27 39.86002 -104.67357 5378 ft 18 kts 90°
2026-04-20 02:27 39.86000 -104.67195 5377 ft 18 kts 91°
2026-04-20 02:27 39.85997 -104.67038 5378 ft 17 kts 90°
2026-04-20 02:27 39.86044 -104.66905 5377 ft 16 kts 54°
2026-04-20 02:28 39.86060 -104.66764 5382 ft 16 kts 90°
2026-04-20 02:28 39.86059 -104.66624 5385 ft 15 kts 92°
2026-04-20 02:28 39.86024 -104.66510 5388 ft 9 kts 103°
2026-04-20 02:28 39.86019 -104.66432 5390 ft 9 kts 90°
2026-04-20 02:29 39.86062 -104.66351 5391 ft 16 kts 17°
2026-04-20 02:29 39.86185 -104.66344 5390 ft 18 kts
2026-04-20 02:29 39.86307 -104.66344 5392 ft 17 kts
2026-04-20 02:29 39.86424 -104.66342 5391 ft 17 kts
2026-04-20 02:30 39.86511 -104.66253 5391 ft 17 kts 51°
2026-04-20 02:30 39.86627 -104.66224 5388 ft 18 kts
2026-04-20 02:30 39.86764 -104.66223 5382 ft 22 kts
2026-04-20 02:30 39.86928 -104.66222 5371 ft 25 kts
2026-04-20 02:31 39.87097 -104.66222 5373 ft 23 kts 358°
2026-04-20 02:31 39.87256 -104.66220 5379 ft 23 kts
2026-04-20 02:31 39.87411 -104.66215 5387 ft 22 kts
2026-04-20 02:31 39.87561 -104.66210 5390 ft 21 kts
2026-04-20 02:32 39.87658 -104.66210 5391 ft 19 kts 358°
2026-04-20 02:32 39.87748 -104.66176 5391 ft 17 kts 59°
2026-04-20 02:32 39.87754 -104.65968 5389 ft 28 kts 91°
2026-04-20 02:32 39.87752 -104.65625 5387 ft 64 kts 90°
2026-04-20 02:33 39.87744 -104.64757 5384 ft 126 kts 90°
2026-04-20 02:33 39.87729 -104.63390 5424 ft 172 kts 91°
2026-04-20 02:33 39.87672 -104.61710 5901 ft 191 kts 94°
2026-04-20 02:33 39.87564 -104.60024 6769 ft 187 kts 96°
2026-04-20 02:34 39.87450 -104.58309 7323 ft 195 kts 97°
2026-04-20 02:34 39.87302 -104.56508 7721 ft 205 kts 99°
2026-04-20 02:34 39.87048 -104.54655 8085 ft 216 kts 113°
2026-04-20 02:34 39.86190 -104.52970 8252 ft 234 kts 127°
2026-04-20 02:35 39.85259 -104.51139 8455 ft 250 kts 122°
2026-04-20 02:35 39.84391 -104.49119 8800 ft 258 kts 119°
2026-04-20 02:35 39.83596 -104.47013 9280 ft 261 kts 116°
2026-04-20 02:35 39.82838 -104.44833 9690 ft 267 kts 115°
2026-04-20 02:36 39.82092 -104.42604 10017 ft 270 kts 115°
2026-04-20 02:36 39.81347 -104.40351 10010 ft 271 kts 115°
2026-04-20 02:36 39.80599 -104.38121 10175 ft 268 kts 116°
2026-04-20 02:36 39.79824 -104.35882 10512 ft 275 kts 116°
2026-04-20 02:37 39.79028 -104.33600 10891 ft 279 kts 116°
2026-04-20 02:37 39.78230 -104.31310 11343 ft 281 kts 115°
2026-04-20 02:37 39.77418 -104.28980 11761 ft 285 kts 115°
2026-04-20 02:37 39.76597 -104.26622 12212 ft 288 kts 115°
2026-04-20 02:38 39.75767 -104.24237 12657 ft 291 kts 115°
2026-04-20 02:38 39.74930 -104.21832 13110 ft 294 kts 115°
2026-04-20 02:38 39.74075 -104.19380 13476 ft 301 kts 114°
2026-04-20 02:38 39.73197 -104.16864 13841 ft 311 kts 114°
2026-04-20 02:39 39.72269 -104.14213 13931 ft 333 kts 114°
2026-04-20 02:39 39.71269 -104.11379 14071 ft 357 kts 115°
2026-04-20 02:39 39.70207 -104.08380 14460 ft 371 kts 115°
2026-04-20 02:39 39.69122 -104.05321 15137 ft 376 kts 115°
2026-04-20 02:40 39.68026 -104.02228 15901 ft 378 kts 115°
2026-04-20 02:40 39.66921 -103.99113 16630 ft 381 kts 115°
2026-04-20 02:40 39.65801 -103.95961 17337 ft 386 kts 115°
2026-04-20 02:40 39.64609 -103.92814 18043 ft 390 kts 118°
2026-04-20 02:41 39.63334 -103.89736 18676 ft 395 kts 118°
2026-04-20 02:41 39.61994 -103.86530 19162 ft 402 kts 118°
2026-04-20 02:41 39.60680 -103.83356 19733 ft 407 kts 117°
2026-04-20 02:41 39.59325 -103.80057 20345 ft 410 kts 116°
2026-04-20 02:42 39.58154 -103.76676 20975 ft 412 kts 110°
2026-04-20 02:42 39.57156 -103.73185 21584 ft 415 kts 108°
2026-04-20 02:42 39.56223 -103.69684 22160 ft 418 kts 107°
2026-04-20 02:42 39.55274 -103.66097 22737 ft 422 kts 107°
2026-04-20 02:43 39.54301 -103.62477 23330 ft 425 kts 107°
2026-04-20 02:43 39.53305 -103.58853 23859 ft 428 kts 107°
2026-04-20 02:43 39.52287 -103.55210 24309 ft 432 kts 108°
2026-04-20 02:43 39.51247 -103.51528 24744 ft 436 kts 108°
2026-04-20 02:44 39.50196 -103.47831 25194 ft 439 kts 108°
2026-04-20 02:44 39.49136 -103.44114 25642 ft 442 kts 108°
2026-04-20 02:44 39.48065 -103.40366 26057 ft 446 kts 108°
2026-04-20 02:44 39.46983 -103.36583 26432 ft 450 kts 108°
2026-04-20 02:45 39.45891 -103.32768 26810 ft 454 kts 108°
2026-04-20 02:45 39.44786 -103.28914 27234 ft 457 kts 108°
2026-04-20 02:45 39.43676 -103.25046 27654 ft 459 kts 108°
2026-04-20 02:45 39.42575 -103.21215 28029 ft 463 kts 108°
2026-04-20 02:46 39.41446 -103.17294 28405 ft 466 kts 108°
2026-04-20 02:46 39.40310 -103.13350 28804 ft 469 kts 108°
2026-04-20 02:46 39.39163 -103.09377 29131 ft 473 kts 108°
2026-04-20 02:46 39.38005 -103.05371 29444 ft 477 kts 109°
2026-04-20 02:47 39.36840 -103.01345 29740 ft 481 kts 109°
2026-04-20 02:47 39.35661 -102.97278 30069 ft 484 kts 109°
2026-04-20 02:47 39.34433 -102.93204 30363 ft 488 kts 112°
2026-04-20 02:47 39.32987 -102.89230 30650 ft 490 kts 115°
2026-04-20 02:48 39.31411 -102.85305 30929 ft 493 kts 117°
2026-04-20 02:48 39.29796 -102.81397 31211 ft 495 kts 117°
2026-04-20 02:48 39.28180 -102.77460 31474 ft 497 kts 117°
2026-04-20 02:48 39.26575 -102.73487 31706 ft 500 kts 116°
2026-04-20 02:49 39.24985 -102.69491 31932 ft 503 kts 116°
2026-04-20 02:49 39.23396 -102.65464 32216 ft 504 kts 116°
2026-04-20 02:49 39.21814 -102.61442 32571 ft 503 kts 116°
2026-04-20 02:49 39.20252 -102.57474 32951 ft 502 kts 116°
2026-04-20 02:50 39.18670 -102.53464 33323 ft 501 kts 116°
2026-04-20 02:50 39.17084 -102.49454 33635 ft 501 kts 116°
2026-04-20 02:50 39.15497 -102.45449 33953 ft 501 kts 116°
2026-04-20 02:50 39.13912 -102.41459 34265 ft 501 kts 116°
2026-04-20 02:51 39.12319 -102.37464 34578 ft 499 kts 117°
2026-04-20 02:51 39.10730 -102.33501 34881 ft 498 kts 117°
2026-04-20 02:51 39.09133 -102.29528 35100 ft 499 kts 117°
2026-04-20 02:51 39.07531 -102.25547 35305 ft 500 kts 117°
2026-04-20 02:52 39.05932 -102.21579 35551 ft 500 kts 117°
2026-04-20 02:52 39.04326 -102.17593 35776 ft 500 kts 117°
2026-04-20 02:52 39.02725 -102.13625 36020 ft 500 kts 117°
2026-04-20 02:52 39.01138 -102.09693 36245 ft 501 kts 117°
2026-04-20 02:53 38.99530 -102.05716 36459 ft 501 kts 117°
2026-04-20 02:53 38.97921 -102.01742 36705 ft 501 kts 117°
2026-04-20 02:53 38.96307 -101.97760 36862 ft 503 kts 117°
2026-04-20 02:53 38.94684 -101.93760 37003 ft 505 kts 117°
2026-04-20 02:54 38.93055 -101.89751 37179 ft 506 kts 117°
2026-04-20 02:54 38.91425 -101.85745 37425 ft 506 kts 117°
2026-04-20 02:54 38.89794 -101.81741 37676 ft 505 kts 117°
2026-04-20 02:54 38.88160 -101.77733 37871 ft 506 kts 117°
2026-04-20 02:55 38.86516 -101.73724 38055 ft 507 kts 120°
2026-04-20 02:55 38.84465 -101.70079 38209 ft 504 kts 137°
2026-04-20 02:55 38.81751 -101.67301 38458 ft 496 kts 153°
2026-04-20 02:55 38.78780 -101.65065 38632 ft 495 kts 155°
2026-04-20 02:56 38.75815 -101.62919 38714 ft 497 kts 156°
2026-04-20 02:56 38.69733 -101.58550 38816 ft 503 kts 156°
2026-04-20 02:56 38.66691 -101.56337 38998 ft 502 kts 155°
2026-04-20 02:57 38.63653 -101.54102 39068 ft 504 kts 155°
2026-04-20 02:57 38.57581 -101.49598 39069 ft 502 kts 155°
2026-04-20 02:58 38.51635 -101.45173 39057 ft 491 kts 155°
2026-04-20 02:58 38.45785 -101.40833 39056 ft 481 kts 156°
2026-04-20 02:59 38.39989 -101.36557 39087 ft 483 kts 156°
2026-04-20 02:59 38.34116 -101.32239 39034 ft 490 kts 156°
2026-04-20 03:00 38.28234 -101.27912 39068 ft 486 kts 156°
2026-04-20 03:00 38.22424 -101.23638 39064 ft 479 kts 156°
2026-04-20 03:01 38.16688 -101.19435 39070 ft 477 kts 156°
2026-04-20 03:01 38.10935 -101.15228 39048 ft 477 kts 156°
2026-04-20 03:02 38.05140 -101.11003 39080 ft 483 kts 156°
2026-04-20 03:02 37.99268 -101.06728 39085 ft 488 kts 156°
2026-04-20 03:03 37.93386 -101.02448 39108 ft 492 kts 156°
2026-04-20 03:03 37.87433 -100.98123 39110 ft 493 kts 156°
2026-04-20 03:04 37.81531 -100.93836 39101 ft 483 kts 156°
2026-04-20 03:04 37.75711 -100.89623 39117 ft 481 kts 156°
2026-04-20 03:05 37.69927 -100.85450 39112 ft 481 kts 156°
2026-04-20 03:05 37.64113 -100.81263 39110 ft 482 kts 156°
2026-04-20 03:06 37.58276 -100.77066 39127 ft 484 kts 156°
2026-04-20 03:06 37.52401 -100.72848 39130 ft 487 kts 156°
2026-04-20 03:07 37.46495 -100.68605 39099 ft 490 kts 156°
2026-04-20 03:07 37.40539 -100.64338 39143 ft 492 kts 156°
2026-04-20 03:08 37.34605 -100.60100 39152 ft 495 kts 156°
2026-04-20 03:08 37.28585 -100.55810 39166 ft 498 kts 156°
2026-04-20 03:09 37.22548 -100.51513 39137 ft 497 kts 156°
2026-04-20 03:09 37.16586 -100.47269 39131 ft 487 kts 157°
2026-04-20 03:10 37.10709 -100.43101 39148 ft 485 kts 157°
2026-04-20 03:10 37.04840 -100.38953 39151 ft 484 kts 157°
2026-04-20 03:11 36.99005 -100.34834 39149 ft 484 kts 157°
2026-04-20 03:11 36.93135 -100.30695 39157 ft 484 kts 157°
2026-04-20 03:12 36.87263 -100.26562 39156 ft 485 kts 157°
2026-04-20 03:12 36.81384 -100.22432 39161 ft 485 kts 157°
2026-04-20 03:13 36.75487 -100.18299 39154 ft 487 kts 158°
2026-04-20 03:13 36.69570 -100.14156 39174 ft 488 kts 158°
2026-04-20 03:14 36.63635 -100.10006 39175 ft 490 kts 158°
2026-04-20 03:14 36.60691 -100.07953 38964 ft 496 kts 158°
2026-04-20 03:14 36.57660 -100.05843 38383 ft 499 kts 157°
2026-04-20 03:14 36.54639 -100.03736 37791 ft 496 kts 158°
2026-04-20 03:15 36.51629 -100.01636 37269 ft 494 kts 157°
2026-04-20 03:15 36.48629 -99.99546 36679 ft 493 kts 157°
2026-04-20 03:15 36.45647 -99.97472 36123 ft 491 kts 157°
2026-04-20 03:15 36.42672 -99.95406 35698 ft 487 kts 157°
2026-04-20 03:16 36.39730 -99.93363 35277 ft 483 kts 157°
2026-04-20 03:16 36.36813 -99.91340 34852 ft 479 kts 157°
2026-04-20 03:16 36.34891 -99.90009 34576 ft 477 kts 157°
2026-04-20 03:16 36.31998 -99.88007 34118 ft 473 kts 157°
2026-04-20 03:17 36.29136 -99.86028 33647 ft 470 kts 157°
2026-04-20 03:17 36.26290 -99.84063 33204 ft 466 kts 157°
2026-04-20 03:17 36.23475 -99.82119 32811 ft 462 kts 156°
2026-04-20 03:17 36.20671 -99.80186 32375 ft 458 kts 156°
2026-04-20 03:18 36.17897 -99.78275 31957 ft 455 kts 156°
2026-04-20 03:18 36.15143 -99.76379 31541 ft 451 kts 156°
2026-04-20 03:18 36.12406 -99.74497 31145 ft 448 kts 156°
2026-04-20 03:18 36.09687 -99.72628 30715 ft 445 kts 156°
2026-04-20 03:19 36.07021 -99.70796 30328 ft 442 kts 156°
2026-04-20 03:19 36.04342 -99.68958 29884 ft 439 kts 156°
2026-04-20 03:19 36.01678 -99.67132 29436 ft 435 kts 156°
2026-04-20 03:19 35.99038 -99.65324 29031 ft 431 kts 156°
2026-04-20 03:20 35.96422 -99.63534 28608 ft 428 kts 156°
2026-04-20 03:20 35.93825 -99.61757 28195 ft 424 kts 156°
2026-04-20 03:20 35.91253 -99.59998 27787 ft 421 kts 156°
2026-04-20 03:20 35.88700 -99.58255 27377 ft 418 kts 156°
2026-04-20 03:21 35.86165 -99.56525 26968 ft 415 kts 156°
2026-04-20 03:21 35.83647 -99.54808 26584 ft 412 kts 155°
2026-04-20 03:21 35.81145 -99.53103 26184 ft 410 kts 155°
2026-04-20 03:21 35.78657 -99.51408 25799 ft 407 kts 155°
2026-04-20 03:22 35.76212 -99.49739 25419 ft 405 kts 153°
2026-04-20 03:22 35.73999 -99.47576 25008 ft 410 kts 131°
2026-04-20 03:22 35.72518 -99.44592 24715 ft 408 kts 111°
2026-04-20 03:22 35.71832 -99.41246 24489 ft 400 kts 93°
2026-04-20 03:23 35.71613 -99.37814 24294 ft 403 kts 91°
2026-04-20 03:23 35.71442 -99.34372 23996 ft 401 kts 91°
2026-04-20 03:23 35.71281 -99.30957 23613 ft 399 kts 91°
2026-04-20 03:23 35.71113 -99.27560 23188 ft 397 kts 91°
2026-04-20 03:24 35.70936 -99.24173 22778 ft 394 kts 91°
2026-04-20 03:24 35.70750 -99.20819 22381 ft 392 kts 91°
2026-04-20 03:24 35.70558 -99.17487 21985 ft 389 kts 91°
2026-04-20 03:24 35.70364 -99.14173 21607 ft 387 kts 92°
2026-04-20 03:25 35.70168 -99.10882 21220 ft 385 kts 92°
2026-04-20 03:25 35.69974 -99.07654 20852 ft 382 kts 91°
2026-04-20 03:25 35.69778 -99.04396 20466 ft 381 kts 91°
2026-04-20 03:25 35.69581 -99.01146 20088 ft 379 kts 92°
2026-04-20 03:26 35.69385 -98.97926 19712 ft 377 kts 92°
2026-04-20 03:26 35.69189 -98.94714 19334 ft 376 kts 92°
2026-04-20 03:26 35.68992 -98.91503 18956 ft 375 kts 92°
2026-04-20 03:26 35.68795 -98.88307 18567 ft 374 kts 92°
2026-04-20 03:27 35.68598 -98.85127 18151 ft 372 kts 92°
2026-04-20 03:27 35.68402 -98.81965 17752 ft 370 kts 92°
2026-04-20 03:27 35.68205 -98.78822 17368 ft 367 kts 92°
2026-04-20 03:27 35.68009 -98.75697 16997 ft 364 kts 92°
2026-04-20 03:28 35.67814 -98.72593 16445 ft 367 kts 92°
2026-04-20 03:28 35.67619 -98.69498 16020 ft 366 kts 92°
2026-04-20 03:28 35.67223 -98.63278 15247 ft 362 kts 92°
2026-04-20 03:29 35.67026 -98.60202 14880 ft 359 kts 93°
2026-04-20 03:29 35.66829 -98.57147 14508 ft 356 kts 93°
2026-04-20 03:29 35.66633 -98.54117 14144 ft 354 kts 93°
2026-04-20 03:29 35.66438 -98.51103 13743 ft 352 kts 93°
2026-04-20 03:30 35.66243 -98.48118 13351 ft 349 kts 93°
2026-04-20 03:30 35.66050 -98.45158 12968 ft 346 kts 93°
2026-04-20 03:30 35.65860 -98.42256 12613 ft 343 kts 93°
2026-04-20 03:30 35.65669 -98.39351 12262 ft 339 kts 94°
2026-04-20 03:31 35.65309 -98.36500 11910 ft 337 kts 102°
2026-04-20 03:31 35.64742 -98.33716 11581 ft 334 kts 104°
2026-04-20 03:31 35.64143 -98.30968 11241 ft 331 kts 104°
2026-04-20 03:31 35.63561 -98.28240 10894 ft 329 kts 103°
2026-04-20 03:32 35.63005 -98.25526 10552 ft 326 kts 103°
2026-04-20 03:32 35.62466 -98.22827 10222 ft 324 kts 103°
2026-04-20 03:32 35.61940 -98.20171 10065 ft 315 kts 103°
2026-04-20 03:32 35.61438 -98.17592 9920 ft 303 kts 102°
2026-04-20 03:33 35.60983 -98.15132 9586 ft 294 kts 102°
2026-04-20 03:33 35.60542 -98.12716 9291 ft 286 kts 103°
2026-04-20 03:33 35.60109 -98.10355 8997 ft 279 kts 103°
2026-04-20 03:33 35.59694 -98.08102 8892 ft 259 kts 103°
2026-04-20 03:34 35.59306 -98.06003 8775 ft 246 kts 103°
2026-04-20 03:34 35.58939 -98.04021 8647 ft 230 kts 104°
2026-04-20 03:34 35.58584 -98.02111 8155 ft 232 kts 104°
2026-04-20 03:34 35.58236 -98.00238 7859 ft 225 kts 105°
2026-04-20 03:35 35.57893 -97.98406 7625 ft 216 kts 105°
2026-04-20 03:35 35.57549 -97.96606 7423 ft 216 kts 106°
2026-04-20 03:35 35.57201 -97.94799 7224 ft 219 kts 106°
2026-04-20 03:35 35.56851 -97.92975 7017 ft 221 kts 107°
2026-04-20 03:36 35.56496 -97.91132 6809 ft 222 kts 107°
2026-04-20 03:36 35.56143 -97.89294 6633 ft 218 kts 107°
2026-04-20 03:36 35.56090 -97.87446 6336 ft 221 kts 75°
2026-04-20 03:36 35.56614 -97.85689 6117 ft 219 kts 73°
2026-04-20 03:37 35.57113 -97.83911 5874 ft 221 kts 74°
2026-04-20 03:37 35.57597 -97.82110 5628 ft 222 kts 75°
2026-04-20 03:37 35.58071 -97.80303 5384 ft 222 kts 76°
2026-04-20 03:37 35.58532 -97.78517 5130 ft 222 kts 77°
2026-04-20 03:38 35.58991 -97.76712 4878 ft 221 kts 77°
2026-04-20 03:38 35.59445 -97.74911 4626 ft 220 kts 77°
2026-04-20 03:38 35.59897 -97.73116 4383 ft 218 kts 78°
2026-04-20 03:38 35.60334 -97.71382 4379 ft 210 kts 77°
2026-04-20 03:39 35.60749 -97.69653 4391 ft 211 kts 84°
2026-04-20 03:39 35.60593 -97.67968 4375 ft 192 kts 126°
2026-04-20 03:39 35.59888 -97.66598 4411 ft 190 kts 129°
2026-04-20 03:39 35.59172 -97.65225 4405 ft 190 kts 129°
2026-04-20 03:40 35.58475 -97.63886 4400 ft 181 kts 130°
2026-04-20 03:40 35.57805 -97.62602 4375 ft 176 kts 130°
2026-04-20 03:40 35.57149 -97.61347 4382 ft 173 kts 130°
2026-04-20 03:40 35.56509 -97.60123 4368 ft 171 kts 130°
2026-04-20 03:41 35.55692 -97.59151 4216 ft 158 kts 167°
2026-04-20 03:41 35.54647 -97.59005 4103 ft 151 kts 179°
2026-04-20 03:41 35.53612 -97.58933 3875 ft 146 kts 182°
2026-04-20 03:41 35.52612 -97.58915 3697 ft 141 kts 183°
2026-04-20 03:42 35.51667 -97.58911 3516 ft 129 kts 183°
2026-04-20 03:42 35.50770 -97.58910 3334 ft 128 kts 182°
2026-04-20 03:42 35.49885 -97.58908 3160 ft 125 kts 182°
2026-04-20 03:42 35.49031 -97.58907 3009 ft 125 kts 182°
2026-04-20 03:43 35.48158 -97.58906 2844 ft 125 kts 182°
2026-04-20 03:43 35.47294 -97.58903 2668 ft 124 kts 183°
2026-04-20 03:43 35.46422 -97.58892 2436 ft 125 kts 182°
2026-04-20 03:43 35.45568 -97.58897 2279 ft 120 kts 185°
2026-04-20 03:44 35.44712 -97.58911 2059 ft 126 kts 181°
2026-04-20 03:44 35.43824 -97.58894 1954 ft 131 kts 180°
2026-04-20 03:44 35.42883 -97.58896 1807 ft 139 kts 180°
2026-04-20 03:44 35.41902 -97.58882 1688 ft 139 kts 180°
2026-04-20 03:45 35.40970 -97.58889 1480 ft 133 kts 180°
2026-04-20 03:45 35.40083 -97.58897 1301 ft 118 kts 177°
2026-04-20 03:45 35.39424 -97.58895 1294 ft 65 kts 179°
2026-04-20 03:45 35.39123 -97.58895 1296 ft 30 kts 180°
2026-04-20 03:46 35.38979 -97.58984 1295 ft 18 kts 263°
2026-04-20 03:46 35.38981 -97.59010 1295 ft 0 kts 282°
2026-04-20 03:46 35.38985 -97.59021 1295 ft 5 kts 296°
2026-04-20 03:46 35.39026 -97.59057 1294 ft 11 kts 341°
2026-04-20 03:47 35.39135 -97.59061 1292 ft 18 kts
2026-04-20 03:47 35.39217 -97.59131 1294 ft 16 kts 275°
2026-04-20 03:47 35.39217 -97.59265 1295 ft 15 kts 270°
2026-04-20 03:47 35.39217 -97.59390 1296 ft 15 kts 270°
2026-04-20 03:48 35.39217 -97.59515 1296 ft 15 kts 270°
2026-04-20 03:48 35.39217 -97.59651 1296 ft 17 kts 271°
2026-04-20 03:48 35.39221 -97.59804 1297 ft 19 kts 279°
2026-04-20 03:48 35.39296 -97.59952 1297 ft 23 kts 317°
2026-04-20 03:49 35.39419 -97.60094 1294 ft 26 kts 316°
2026-04-20 03:49 35.39526 -97.60206 1291 ft 16 kts 344°
2026-04-20 03:49 35.39592 -97.60107 1292 ft 17 kts 59°
2026-04-20 03:49 35.39616 -97.60050 1294 ft 0 kts 65°
2026-04-20 03:50 35.39629 -97.59976 1296 ft 10 kts 94°
2026-04-20 03:50 35.39618 -97.59911 1298 ft 5 kts 120°
2026-04-20 03:50 35.39587 -97.59899 1298 ft 5 kts 178°
2026-04-20 03:50 35.39571 -97.59899 1298 ft 0 kts 180°